Location: Beaurecueil
(43.5122°N, 5.5450°E)
Time: 05:26:51
(UTC+00:00)

Cosmos 1939 Rocket - Pass Details

Date: 18 January 2021
Orbit: 531 x 585 km, 97.4° (Epoch: 06 March)

Event Time Altitude Azimuth Distance (km) Brightness Sun altitude
Rises 05:20:54 0° 32° (NNE) 2,738 6.7 -18.8°
Reaches altitude 10° 05:24:01 10° 59° (ENE) 1,825 6.1 -18.2°
Maximum altitude 05:26:04 14° 90° (E) 1,587 6.3 -17.9°
Drops below altitude 10° 05:28:05 10° 122° (ESE) 1,803 6.5 -17.5°
Sets 05:31:07 0° 149° (SSE) 2,678 7.0 -17.0°
